OpenBCM V2.0.3 (Linux)

Packet Radio Mailbox

IZ3LSV

[San Dona' di P. JN]

 Login: GUEST





  
LU9DCE > KEPS     18.02.18 18:13l 260 Lines 12914 Bytes #999 (0) @ WW
BID : 32212_LU9DCE
Read: GUEST
Subj: SAT TLE OF 18
Path: IZ3LSV<IR2UBX<EA2RCF<LU9DCE
Sent: 180218/1601Z @:LU9DCE.TOR.BA.ARG.SOAM #:32212 [TORTUGUITAS] FBB7.07
From: LU9DCE@LU9DCE.TOR.BA.ARG.SOAM
To  : KEPS@WW


            __    _  _  ___  ____   ___  ____    ____  ____  ____
           (  )  / )( \/ _ \(    \ / __)(  __)  (  _ \(  _ \/ ___)
           / (_/\) \/ (\__  )) D (( (__  ) _)    ) _ ( ) _ (\___ \
           \____/\____/(___/(____/ \___)(____)  (____/(____/(____/
               ESTACION DE PACKET RADIO - BUENOS AIRES (GF05OM)
                   BOLETINES INFORMATIVOS PROGRAMADOS (BIP)
                    LU9DCE@GMX.COM - RF 147070 @ 1200 BAUD
                           telnet lu9dce.dynu.com
             BBS port 6300 / NODE port 3694 / DXCLUSTER port 9000

+------------------------------------------------------------------------------+
OSCAR 7
1 07530U 74089B   18048.86814184 -.00000048  00000-0 -22688-4 0  9998
2 07530 101.6710  18.0556 0011886 205.1683 209.4478 12.53631090979646
OSCAR 11 (UoSAT 2)
1 14781U 84021B   18049.18125702  .00000059  00000-0  13504-4 0  9995
2 14781  97.6656  90.3708 0009908 110.5780 249.6498 14.82980998826801
OSCAR 19 (LUSAT)
1 20442U 90005G   18048.87505486 -.00000006 +00000-0 +14029-4 0  9997
2 20442 098.6003 348.1702 0012445 138.2477 221.9659 14.32886788466749
KITSAT B
1 22825U 93061C   18048.92462089 -.00000006 +00000-0 +15523-4 0  9996
2 22825 098.8484 022.9712 0008055 341.8270 018.2623 14.30021994272251
POSAT 1
1 22826U 93061D   18048.89907216 -.00000004 +00000-0 +16214-4 0  9995
2 22826 098.8425 022.9979 0008414 330.8239 029.2472 14.30352848272455
RADIO ROSTO
1 23439U 94085A   18048.78584411 -.00000048 +00000-0 -15890-3 0  9996
2 23439 064.8158 181.9400 0161233 203.3066 269.1582 11.27566537953108
JAS 2
1 24278U 96046B   18048.80964610 -.00000001  00000-0  32673-4 0  9990
2 24278  98.5285 263.9355 0351228  60.7246 302.8522 13.53081440 62099
TECHSAT 1B
1 25397U 98043D   18048.90335176 -.00000009 +00000-0 +14970-4 0  9990
2 25397 098.6387 351.3911 0001843 044.0269 316.1056 14.23639786018531
ISS (ZARYA)
1 25544U 98067A   18048.53986095 +.00001284 +00000-0 +26665-4 0  9990
2 25544 051.6419 255.1811 0003571 108.3921 273.4252 15.54102564099917
PCSAT
1 26931U 01043C   18048.86774417 -.00000033 +00000-0 +19021-4 0  9998
2 26931 067.0512 177.2888 0005817 281.8033 078.2416 14.30494143855415
SAUDISAT 1C
1 27607U 02058C   18049.19051281  .00000008  00000-0  21817-4 0  9997
2 27607  64.5549  93.7558 0051007 356.9387   3.1395 14.75420385815406
CUTE-1
1 27844U 03031E   18048.91261214 +.00000045 +00000-0 +40038-4 0  9997
2 27844 098.6890 059.3162 0009753 003.3260 356.7981 14.22094872759202
CUBESAT XI 4
1 27848U 03031J   18048.83884140 +.00000029 +00000-0 +33127-4 0  9994
2 27848 098.6979 059.6001 0009850 013.5779 346.5662 14.21701371759071
MOZHAYETS 4
1 27939U 03042A   18049.53951601  .00000116  00000-0  29361-4 0  9994
2 27939  97.9701 191.8753 0013506 159.6338 273.7379 14.66658129769423
CUBESAT XI 5
1 28895U 05043F   18048.90427902 +.00000126 +00000-0 +33020-4 0  9999
2 28895 097.8903 205.3129 0018179 087.3364 272.9920 14.63509349656191
CUTE-1.7+APD II
1 32785U 08021C   18048.82852756  .00000236  00000-0  31253-4 0  9999
2 32785  97.5528  66.6735 0014613  76.2635 284.0208 14.88062585531426
DELFI C3
1 32789U 08021G   18049.23937240  .00001853  00000-0  13205-3 0  9993
2 32789  97.5280 106.9895 0011957 350.1384   9.9606 15.05753133533887
SEEDS
1 32791U 08021J   18048.84230564  .00000278  00000-0  33842-4 0  9997
2 32791  97.5447  71.7603 0014723  59.7946 300.4729 14.90468807531732
YUBELEINY
1 32953U 08025A   18049.16387204  .00000024  00000-0  10035-3 0  9998
2 32953  82.4997  86.7061 0020374 109.0675 251.2613 12.43081738441988
PRISM (HITOMI)
1 33493U 09002B   18049.19032968  .00000615  00000-0  60300-4 0  9998
2 33493  98.1438 306.6443 0015426 356.1689   3.9434 14.96074298492557
KKS-1 (KISEKI)
1 33499U 09002H   18048.06483177 +.00000106 +00000-0 +23757-4 0  9991
2 33499 098.3487 225.9613 0008353 321.0510 039.0095 14.75294647487046
SWISSCUBE
1 35932U 09051B   18048.94152304 +.00000131 +00000-0 +40703-4 0  9999
2 35932 098.5259 197.3609 0007212 208.3430 151.7375 14.56121388446045
BEESAT
1 35933U 09051C   18048.63385578 +.00000117 +00000-0 +37391-4 0  9990
2 35933 098.5299 198.5166 0005151 221.2970 138.7838 14.56229476446062
ITUPSAT 1
1 35935U 09051E   18048.89624726 +.00000070 +00000-0 +27272-4 0  9996
2 35935 098.5410 199.0390 0007539 217.6281 142.4389 14.55410970445949
XIWANG-1 (HOPE-1)
1 36122U 09072B   18048.91266763 -.00000027 +00000-0 +38601-4 0  9995
2 36122 100.0835 069.0915 0007817 032.6474 327.5122 13.16343526392855
TISAT 1
1 36799U 10035E   18048.90890844 +.00000575 +00000-0 +64687-4 0  9998
2 36799 098.0874 182.1095 0011345 236.2939 123.7197 14.90695494412183
JUGNU
1 37839U 11058B   18048.34479317  .00000324  00000-0  30958-4 0  9992
2 37839  19.9624  43.9464 0018988   6.6578 129.9387 14.12609537328403
SRMSAT
1 37841U 11058D   18049.23941315  .00000302  00000-0  20934-4 0  9995
2 37841  19.9726  85.2697 0011621 264.2527 162.2775 14.10598361328062
M-CUBED/EXP-1 PRIME
1 37855U 11061F   18049.54675853  .00002060  00000-0  11296-3 0  9992
2 37855 101.7254  51.3628 0177678  73.2565 288.8059 15.04060412343811
HORYU 2
1 38340U 12025D   18048.92716133 +.00000189 +00000-0 +35871-4 0  9997
2 38340 098.3739 066.5063 0010695 226.3313 133.7009 14.75499636299115
STRAND 1
1 39090U 13009E   18048.80955011 +.00000029 +00000-0 +25588-4 0  9997
2 39090 098.5323 256.6625 0008201 295.1427 064.8908 14.35011330260684
SOMP
1 39134U 13015E   18049.03468308  .00001556  00000-0  83546-4 0  9991
2 39134  64.8638 152.2465 0024503 226.8539 133.0539 15.18814579266806
BEESAT 3
1 39135U 13015F   18049.12745585  .00001428  00000-0  82549-4 0  9997
2 39135  64.8698 163.7791 0029998 248.1088 111.6848 15.16397805266598
BEESAT 2
1 39136U 13015G   18048.79192705 +.00001565 +00000-0 +90780-4 0  9998
2 39136 064.8696 167.3262 0030061 248.9241 110.8670 15.15874322266106
CUBEBUG 1
1 39153U 13018D   18049.21216036  .00000226  00000-0  36565-4 0  9996
2 39153  97.9788 145.1749 0016290 335.9627  24.0823 14.80340772259983
ZACUBE
1 39417U 13066B   18048.65245897 +.00000219 +00000-0 +34141-4 0  9996
2 39417 097.6013 083.5904 0059119 185.2679 174.7919 14.80876009229109
TRITON 1
1 39427U 13066M   18049.05709518  .00000154  00000-0  32983-4 0  9997
2 39427  97.6380  52.9092 0112717 281.2198  77.6356 14.67611728227106
GOMX 1
1 39430U 13066Q   18048.90805516  .00000282  00000-0  60334-4 0  9992
2 39430  97.6856  34.4591 0151430 347.6516  12.0990 14.59024589225764
HUMSAT D
1 39433U 13066T   18048.84905887 +.00000628 +00000-0 +67225-4 0  9990
2 39433 097.6206 109.3117 0032407 118.9732 241.4743 14.91749256229458
50 SAT
1 39436U 13066W   18048.91328372  .00092220  00000-0  11557-2 0  9993
2 39436  97.7122 175.4990 0006402 268.4652  91.5870 15.59432861234626
CUBEBUG 2
1 39440U 13066AA  18048.93334642 +.00000182 +00000-0 +32568-4 0  9990
2 39440 097.6093 071.2100 0079657 222.0065 137.5020 14.75612820227137
FUNCUBE 1
1 39444U 13066AE  18048.77814591 +.00000250 +00000-0 +37368-4 0  9991
2 39444 097.6025 085.0826 0058426 180.6761 179.4384 14.81640944227387
UWE-3
1 39446U 13066AG  18048.95728441 +.00000200 +00000-0 +33405-4 0  9994
2 39446 097.6039 077.1967 0069778 203.4751 156.3271 14.78145723226915
SPROUT
1 39770U 14029E   18049.53784966  .00000685  00000-0  83240-4 0  9992
2 39770  97.8729 151.6306 0007750 233.2773 126.7740 14.86670155202732
UNISAT 6
1 40012U 14033C   18049.19728156  .00000159  00000-0  31383-4 0  9996
2 40012  97.8260 289.7540 0057492 221.6077 138.0750 14.73764775197178
DUCHIFAT 1
1 40021U 14033M   18048.74412058  .00000385  00000-0  45613-4 0  9999
2 40021  97.9179 327.2490 0012162 207.1037 152.9546 14.90198871199166
QB50P1
1 40025U 14033R   18049.17711052  .00000324  00000-0  40735-4 0  9990
2 40025  97.9090 324.8039 0011650 211.4990 148.5530 14.88637043199082
CHUBUSAT 1
1 40300U 14070C   18049.24549101  .00000642  00000-0  31608-4 0  9991
2 40300  97.3744 129.4439 0019305 324.3496 107.2108 15.21386205182197
NUDT-PHONESAT
1 40900U 15049B   18048.57574608  .00002610  00000-0  12126-3 0  9999
2 40900  97.4428  58.2415 0015396  88.5886 271.7113 15.20788232133738
ZDPS 2A
1 40901U 15049C   18049.47723131  .00001016  00000-0  54917-4 0  9991
2 40901  97.4597  57.6924 0015510  90.4612 269.8399 15.16857560133663
ZDPS 2B
1 40902U 15049D   18049.23726013  .00000912  00000-0  49897-4 0  9993
2 40902  97.4486  55.6785 0015551  88.7039 271.5975 15.16663958133613
XW-2A
1 40903U 15049E   18049.54839054  .00002300  00000-0  59542-4 0  9999
2 40903  97.3983  83.1634 0016177  97.7112 262.5972 15.40011188135541
KAITUO 1A
1 40904U 15049F   18049.52218427  .00000366  00000-0  23118-4 0  9993
2 40904  97.4576  55.3384 0016684  88.6450  27.2036 15.14883513133535
OBJECT G
1 40905U 15049G   18049.17733195  .00000434  00000-0  27535-4 0  9992
2 40905  97.4571  53.2768 0017521  83.4592 276.8634 15.13858836133417
XW-2C
1 40906U 15049H   18049.50565721  .00000750  00000-0  43531-4 0  9993
2 40906  97.4593  55.1922 0016775  82.3193 277.9943 15.15018404133528
XW-2D
1 40907U 15049J   18049.53548719  .00000823  00000-0  47257-4 0  9995
2 40907  97.4565  54.9341 0016133  80.3844 279.9210 15.15156524133535
LILACSAT 2
1 40908U 15049K   18048.93890988 +.00000403 +00000-0 +26137-4 0  9995
2 40908 097.4672 053.8578 0017727 082.6858 277.6388 15.13407574133336
XW-2F
1 40910U 15049M   18048.91424736 +.00001172 +00000-0 +63818-4 0  9991
2 40910 097.4572 055.4254 0016860 079.0037 281.3091 15.16262721133501
XW-2B
1 40911U 15049N   18049.21856312  .00000740  00000-0  42909-4 0  9993
2 40911  97.4603  55.1142 0016046  81.8378 278.4674 15.15104620133387
